GFSSGP_prec_cloud_159.txt.gz
Cloud_Cover
5 4 2 2 0 0 1 46 63 5 3 5 0 0 0 4 5 69 47 53 14 7 24 5 5 1 0 0 0 0 0 2 5 7 97 4 18 97 100 86 98 99 14 49 91 100 100 95 91
5 5 2 2 3 0 0 0 0 0 0 2 4 1 0 0 1 3 15 29 29 30 27 5 5 4 0 0 0 0 0 0 1 3 6 6 5 13 100 100 100 70 64 96 100 100 77 100 82
4 5 1 2 5 0 0 0 0 0 0 0 0 0 0 0 5 0 5 9 41 54 36 5 4 4 0 0 0 0 0 0 0 5 88 6 5 9 38 100 100 65 86 100 100 100 100 100 90
5 5 5 0 0 0 0 0 0 0 0 0 0 0 0 0 5 5 2 12 34 71 17 100 5 2 0 0 0 0 0 7 0 0 51 89 0 5 5 100 100 100 100 100 100 63 98 72 0
4 5 5 5 1 0 0 0 0 0 0 0 0 0 0 0 0 1 20 10 49 91 27 100 6 3 0 0 0 0 0 0 0 0 32 100 2 0 0 54 98 99 100 67 100 9 4 0 4
5 3 4 0 0 0 0 0 0 0 0 0 0 0 0 0 0 33 35 14 31 98 38 22 44 5 5 3 0 0 0 0 0 0 24 76 89 14 35 72 21 14 81 7 23 0 0 0 2
0 0 0 0 0 0 0 0 0 0 0 0 0 0 0 0 0 14 17 16 37 51 51 40 33 16 10 5 5 1 0 0 0 0 74 0 84 93 100 29 0 66 4 17 6 0 0 0 0
0 0 0 0 0 0 0 0 0 0 0 0 0 0 0 0 0 4 18 31 47 62 56 54 43 24 55 9 5 3 5 2 5 2 0 0 27 100 100 4 0 0 0 3 5 0 0 0 0
5 5 5 0 0 0 0 0 0 0 0 0 0 0 0 0 27 39 56 71 83 94 96 61 53 36 61 86 80 11 5 5 5 3 5 0 0 55 100 12 0 0 0 0 0 0 0 0 0
5 5 5 5 0 0 0 0 0 0 0 0 0 0 0 0 16 13 36 24 100 100 100 92 89 47 31 32 64 5 5 5 5 5 6 5 4 5 5 32 2 0 51 4 0 1 0 0 0
5 5 5 5 0 0 0 0 0 0 0 0 0 0 0 0 0 0 0 0 0 10 53 69 100 99 51 41 68 51 11 6 5 45 66 1 3 5 5 5 36 17 45 4 5 5 5 4 5
7 5 5 5 5 0 5 1 0 0 0 0 0 0 0 0 0 0 0 0 0 0 0 0 63 100 94 55 53 86 100 98 90 99 99 5 6 9 19 5 5 6 54 6 7 29 49 11 5
20 5 6 72 86 18 3 0 0 0 0 0 0 0 0 0 0 0 0 0 0 0 0 0 3 55 91 100 100 88 57 93 99 94 99 92 9 76 24 36 26 5 5 63 55 6 5 8 39
98 80 59 18 80 100 74 8 4 0 0 0 0 0 0 0 0 0 0 0 0 0 0 0 0 0 36 77 97 100 100 65 79 100 100 100 100 100 83 54 17 21 65 61 54 44 44 6 10
100 38 100 100 53 40 91 100 98 5 4 0 0 0 0 0 0 0 0 0 0 0 0 0 0 0 19 31 51 69 90 72 90 96 100 100 100 100 100 100 100 99 72 100 95 87 61 62 89
100 100 71 93 99 77 29 100 69 5 5 4 5 5 1 0 0 0 0 0 0 0 0 0 0 0 0 3 18 51 92 75 79 80 100 46 5 61 100 100 100 100 100 100 100 99 82 58 30
100 100 100 99 59 90 8 96 67 5 5 5 15 6 1 0 0 0 0 0 0 0 0 0 0 0 0 0 13 42 57 100 100 100 100 100 36 6 7 86 100 100 100 100 100 99 98 100 100
100 100 100 100 90 6 70 98 100 14 0 5 5 5 5 5 5 0 0 5 5 0 0 0 0 0 0 0 4 40 92 100 100 100 100 100 93 43 32 22 10 52 83 93 88 100 100 97 54
100 100 100 100 100 100 100 94 100 88 10 12 5 5 5 5 1 2 0 0 0 0 0 0 0 0 0 0 12 67 97 98 100 100 100 100 100 64 39 25 43 62 55 63 91 68 98 100 100
100 93 98 100 100 86 100 100 100 100 100 90 32 5 5 2 3 4 0 0 0 0 0 0 0 0 0 0 0 0 0 2 16 75 95 100 100 79 55 46 56 71 83 60 40 65 63 100 100
100 27 100 100 100 93 24 9 13 73 99 100 5 7 5 5 5 5 3 0 0 0 0 0 0 0 0 0 0 0 0 2 3 47 72 70 96 100 87 46 61 62 91 71 92 96 89 85 97
100 100 100 100 84 73 12 29 8 91 99 97 58 17 9 5 5 3 0 0 0 0 0 0 0 0 0 0 0 0 0 8 0 0 1 3 19 74 100 94 75 99 86 100 100 100 86 90 94
100 100 82 36 58 100 100 91 100 100 100 100 100 89 6 25 3 0 0 0 0 5 5 1 0 0 0 0 0 0 0 0 0 0 0 0 0 1 30 68 65 76 100 100 100 99 99 100 100
100 100 100 100 100 87 98 79 98 87 95 100 100 97 45 5 4 0 0 0 0 3 4 5 5 5 1 0 24 76 100 77 78 28 32 51 63 30 4 3 39 68 82 98 100 70 100 100 100
100 100 100 100 100 25 39 30 53 41 55 78 100 100 91 41 5 5 3 3 5 1 0 0 0 0 0 0 0 0 5 41 99 97 73 51 100 97 13 17 77 75 97 100 100 100 98 100 100
100 100 88 86 52 26 6 47 79 70 32 100 98 8 5 5 3 0 0 0 0 0 0 0 0 0 0 0 0 0 0 5 5 22 79 98 100 96 72 98 47 100 100 100 74 98 100 100 100
100 96 100 100 27 12 3 3 4 29 94 99 8 9 95 5 0 0 0 0 0 0 0 0 0 0 0 0 0 0 0 0 7 90 96 97 85 24 88 100 79 99 100 86 41 94 100 100 100
100 100 100 92 100 100 5 5 19 16 100 61 66 8 5 5 0 0 0 0 0 3 2 2 2 5 5 5 5 1 2 0 1 5 0 0 5 10 60 16 36 98 84 72 82 100 99 100 100
100 100 100 100 94 36 6 0 46 91 91 96 15 5 1 0 0 0 0 0 3 5 5 45 32 5 5 5 5 5 4 3 0 1 0 1 13 75 97 93 77 9 66 100 100 100 100 100 100
98 47 98 57 72 60 17 0 57 100 81 66 5 5 4 5 3 1 5 93 42 5 1 5 6 8 5 5 5 34 5 5 5 8 5 5 5 47 100 100 100 100 100 93 100 100 100 100 100

GFSSGP_prec_cloud_162.txt.gz
Cloud_Cover
5 5 4 5 5 5 28 0 0 0 0 0 0 0 0 0 2 3 5 1 2 40 82 22 4 0 0 0 0 0 0 79 7 3 75 48 5 5 96 97 64 82 92 100 48 58 74 34 6
5 2 0 0 0 0 0 0 0 0 0 0 0 0 0 0 0 0 2 0 2 12 50 50 1 0 0 0 0 0 0 0 0 0 24 88 0 5 56 92 99 80 27 8 68 38 99 61 94
5 0 0 0 0 0 0 0 0 0 0 0 0 0 0 0 0 0 0 0 0 3 21 10 18 2 0 0 0 38 0 0 0 45 78 9 6 13 68 100 100 82 100 100 85 82 100 100 39
5 5 0 0 0 0 0 0 0 0 0 0 0 0 0 0 0 0 0 0 0 6 23 40 21 18 3 0 0 0 0 0 0 0 82 86 0 0 0 96 100 100 100 100 99 100 98 8 44
5 5 1 0 0 0 0 0 0 0 0 0 0 0 0 0 0 2 1 0 2 7 18 16 6 18 3 5 2 0 0 0 0 0 74 100 8 0 59 100 100 100 91 100 100 60 80 51 1
5 5 5 5 2 0 0 0 0 0 0 0 0 0 0 0 0 0 17 6 1 5 25 42 22 3 65 0 4 4 1 0 0 0 0 45 99 55 26 100 99 80 65 11 99 28 1 0 5
5 5 5 4 2 0 0 0 0 0 0 0 0 0 0 0 0 1 22 27 17 16 26 37 38 7 46 5 5 5 5 0 4 5 0 8 71 100 100 97 83 60 98 12 21 0 0 0 2
5 5 3 0 0 0 0 0 0 0 0 0 0 0 0 0 0 3 14 33 36 39 36 43 52 53 50 27 21 100 49 0 5 5 5 5 2 58 100 100 34 0 8 0 0 0 0 0 0
28 5 4 0 0 0 0 0 0 0 0 0 0 0 0 0 0 11 20 26 30 34 41 51 60 58 60 52 75 100 100 78 7 52 4 5 88 5 33 97 95 100 2 0 0 0 0 1 1
91 25 5 4 1 0 0 0 0 0 0 0 0 0 0 0 0 0 0 0 1 6 35 31 33 38 59 54 24 9 7 14 91 79 4 5 100 59 5 9 28 30 65 99 13 5 4 5 5
58 38 19 5 5 5 0 0 0 0 0 0 0 0 0 0 0 0 0 0 0 0 2 7 19 18 42 58 51 72 65 37 100 100 94 39 58 100 12 33 72 74 61 32 90 75 91 66 20
59 82 66 56 22 6 2 0 0 0 0 0 0 0 0 0 0 0 0 0 0 0 0 2 30 50 59 29 56 63 78 55 27 89 100 100 100 100 100 82 22 92 31 72 67 82 83 62 82
5 55 94 86 69 79 6 1 0 0 0 0 0 0 0 0 0 0 0 0 0 0 0 0 0 18 57 94 44 54 62 62 37 27 25 70 100 100 100 100 100 73 34 86 94 79 45 36 72
90 46 93 100 100 98 46 5 5 1 0 0 0 0 0 0 0 0 0 0 0 0 0 0 0 0 1 39 61 42 53 30 67 49 28 5 6 64 100 95 97 100 100 100 100 100 100 100 50
91 83 25 80 62 37 7 5 5 5 4 5 0 0 0 0 0 0 0 0 0 0 0 0 0 0 0 0 1 24 66 76 58 55 55 27 6 5 10 100 100 41 16 100 100 100 100 100 100
93 31 75 45 5 32 6 71 5 5 5 4 5 5 4 0 0 0 0 0 0 0 0 0 0 0 0 0 0 0 10 66 77 86 85 64 42 8 11 33 16 6 5 60 100 100 100 100 100
97 98 67 30 98 100 84 100 41 7 5 5 5 5 7 1 0 0 2 5 2 0 0 0 0 0 0 0 0 0 1 33 100 99 97 59 57 48 46 42 29 39 30 29 27 66 84 98 80
100 97 100 100 100 100 100 100 100 100 5 5 5 5 5 3 2 5 5 5 4 0 0 0 0 0 0 0 0 0 0 39 100 100 100 100 100 98 84 49 48 65 62 40 52 28 38 51 91
100 100 100 100 100 100 100 100 100 100 26 5 7 5 5 0 0 5 5 2 5 1 0 0 0 0 0 0 0 0 0 2 5 80 100 100 100 100 100 83 76 100 96 53 57 71 84 84 86
100 100 100 100 100 100 100 100 100 100 100 100 99 14 6 0 5 6 5 5 4 2 0 0 0 0 0 0 0 0 0 0 0 0 41 100 100 100 100 100 100 100 100 100 88 100 100 97 99
100 100 100 100 100 100 98 100 100 100 100 100 100 100 100 100 96 88 57 97 68 3 2 0 0 0 0 0 0 0 0 0 0 6 16 99 100 100 100 100 100 100 100 100 100 100 100 100 100
100 100 100 100 100 100 57 20 91 100 100 100 100 100 100 100 72 11 7 5 5 0 0 0 3 2 0 0 0 0 0 0 0 0 23 65 92 100 100 100 100 100 100 100 100 100 100 100 100
100 100 100 100 100 100 100 61 98 100 100 100 100 28 36 6 5 5 5 5 4 2 0 0 0 0 0 0 16 32 61 71 99 92 64 69 72 79 68 84 100 100 100 100 100 100 100 100 100
99 100 100 100 100 71 97 100 17 97 100 100 100 96 70 6 5 14 73 34 5 5 5 4 0 0 0 0 0 5 20 48 98 95 92 100 100 66 94 68 97 100 100 100 100 100 100 100 100
100 100 100 100 97 59 69 87 5 52 93 100 100 100 41 5 5 5 0 0 0 0 0 0 0 0 0 0 0 2 1 1 31 52 72 100 93 100 100 100 100 95 100 98 100 100 100 100 100
100 100 100 100 71 37 10 5 5 100 97 100 100 100 99 97 98 85 5 2 0 0 0 0 0 0 0 0 0 0 0 0 0 0 0 0 2 12 91 100 100 100 100 100 100 100 100 100 100
100 100 100 100 57 12 5 7 12 99 91 6 57 100 100 98 94 5 25 16 16 5 3 5 2 0 0 3 0 2 0 4 3 0 0 1 2 5 5 5 90 100 100 100 100 100 100 100 100
100 100 100 100 100 100 5 3 5 70 100 100 92 10 5 1 4 0 1 1 1 1 0 0 0 3 5 5 5 5 5 5 5 5 5 5 5 4 3 5 3 4 27 5 5 47 100 100 100
100 100 100 100 96 63 5 1 33 86 88 100 53 7 5 5 4 0 0 0 0 0 1 1 1 5 5 5 5 5 5 5 4 5 5 5 5 5 5 5 5 48 75 40 32 94 39 84 99
100 100 91 66 13 56 15 0 24 79 66 47 5 0 0 0 4 3 0 0 3 3 0 0 3 5 20 42 7 5 5 5 5 5 2 4 5 5 5 12 5 74 99 100 87 92 99 100 100

GFSSGP_prec_cloud_165.txt.gz
Cloud_Cover
84 47 38 72 27 13 4 5 5 0 0 0 0 0 0 0 0 10 5 11 8 50 16 2 0 2 0 0 0 0 1 21 0 0 66 47 77 71 69 48 100 100 100 98 67 6 12 98 50
54 5 5 18 36 74 5 5 0 0 0 0 0 0 0 0 0 0 6 2 20 41 43 44 5 5 0 0 0 0 0 0 0 0 94 96 5 21 100 84 100 100 99 80 63 35 52 59 40
37 20 5 4 8 97 6 0 0 0 0 0 0 0 0 0 0 8 4 0 13 34 78 53 0 5 5 2 0 0 0 0 0 18 28 5 5 88 100 100 100 100 100 88 85 5 26 100 100
61 52 5 30 4 2 0 0 0 0 0 0 0 0 0 0 0 2 0 11 22 40 53 44 4 49 27 0 0 0 0 0 0 0 0 4 0 4 47 100 100 100 100 99 90 51 100 100 19
27 39 17 5 1 0 0 0 0 0 0 0 0 0 0 0 0 0 0 8 32 51 94 9 0 4 1 20 1 0 5 1 0 0 0 40 30 0 0 100 100 100 100 100 100 100 100 85 81
64 9 8 5 5 0 0 0 0 0 0 0 0 0 0 0 0 0 10 7 18 60 98 100 19 0 4 60 20 10 5 5 0 0 4 0 0 11 0 88 100 100 100 87 100 53 1 0 1
93 26 48 11 3 2 0 0 0 0 0 0 0 0 0 0 0 0 4 6 15 45 100 100 75 10 45 5 5 5 97 99 5 0 5 5 1 4 0 26 30 35 62 49 6 1 0 0 0
94 32 33 5 5 3 0 4 0 0 0 0 0 3 3 0 0 0 0 4 10 27 40 100 100 98 100 29 1 1 28 98 100 72 14 5 0 6 5 0 5 5 3 0 0 0 0 0 0
67 26 29 6 5 0 0 0 0 0 0 0 0 0 0 0 0 0 0 0 7 6 5 10 86 100 100 100 100 53 57 100 53 21 98 99 10 12 78 5 1 5 10 5 5 9 9 3 5
100 66 6 39 5 4 0 0 0 0 0 0 0 0 0 0 0 0 0 0 0 0 0 0 8 24 96 100 100 87 73 18 14 20 78 98 34 5 15 69 22 1 10 42 37 24 24 29 17
100 28 41 5 5 5 3 0 0 0 0 0 0 0 0 0 0 0 0 0 0 0 0 0 1 10 17 78 100 100 100 100 99 94 55 100 100 89 30 94 100 72 4 7 54 77 97 86 100
100 67 24 5 5 5 5 5 5 2 0 0 0 0 0 0 0 0 0 0 0 0 0 0 3 11 20 29 98 100 100 100 100 99 50 27 25 100 77 98 72 88 100 100 92 87 84 24 56
70 81 99 47 20 20 12 7 5 5 4 0 0 0 0 0 0 0 0 0 0 0 0 0 0 1 20 34 43 83 100 100 100 100 77 44 31 5 22 100 100 100 100 84 92 95 100 100 100
50 100 97 93 56 58 34 37 8 5 5 5 0 0 0 0 0 0 0 0 0 0 0 0 0 0 0 10 5 5 9 24 99 100 100 92 39 6 5 7 5 5 62 100 100 100 100 98 99
97 84 94 96 100 100 16 26 64 5 5 5 3 0 0 0 0 0 0 0 0 0 0 0 0 0 0 0 0 6 13 8 38 92 100 100 92 40 32 14 13 7 5 5 53 99 100 6 6
100 28 76 98 59 71 28 73 5 5 5 5 5 4 0 0 0 0 0 0 0 0 0 0 0 0 0 0 0 0 0 12 90 100 100 100 100 100 83 52 22 14 25 12 18 10 5 5 5
100 100 93 13 14 24 34 84 5 5 5 5 43 55 12 5 5 6 7 4 0 0 0 0 0 0 0 0 0 0 0 0 2 6 8 68 99 100 100 84 69 96 70 46 40 53 40 17 5
100 100 100 6 5 5 6 19 5 4 5 5 6 30 11 41 28 38 12 5 5 0 0 0 0 0 0 0 0 0 0 0 0 10 86 87 98 100 100 100 100 100 100 100 100 99 95 74 43
100 100 100 59 65 5 5 51 5 5 5 78 100 100 100 100 100 100 12 2 0 0 0 0 0 0 0 0 0 0 0 0 0 0 62 100 100 100 100 100 100 100 100 100 100 100 100 100 100
100 100 100 100 100 43 5 5 5 5 5 94 100 100 100 100 100 100 100 35 10 2 2 2 0 2 1 4 4 0 3 0 0 0 7 31 90 100 100 100 100 100 100 100 100 100 100 100 100
100 100 100 100 100 100 15 5 21 24 100 100 100 100 100 100 100 100 100 100 100 94 5 5 18 61 83 57 58 6 5 0 0 0 15 28 77 100 100 100 100 100 100 100 100 100 100 100 100
100 100 100 100 100 100 100 88 98 100 100 100 100 100 100 100 100 100 94 20 5 5 5 5 47 47 47 56 30 5 1 0 0 20 44 87 100 100 98 100 100 100 91 83 90 100 99 100 100
100 100 100 100 100 100 100 100 100 100 100 100 100 100 100 100 100 100 91 23 5 5 5 5 5 4 5 4 1 14 30 39 100 100 98 100 84 59 100 100 99 89 100 100 100 100 100 100 100
100 100 100 100 96 69 100 58 89 100 100 100 100 100 100 100 100 72 6 5 5 5 5 5 5 5 5 5 5 4 0 3 91 73 75 100 100 100 100 98 100 98 98 100 100 100 100 100 100
100 100 100 100 94 5 66 95 5 100 100 100 100 100 100 100 57 9 5 5 5 5 5 56 33 77 86 95 99 56 6 3 0 5 4 5 5 10 23 62 99 100 100 99 100 100 99 100 100
100 100 100 100 100 100 100 25 5 40 100 100 100 100 100 100 100 32 5 5 5 3 5 5 5 6 5 5 5 5 4 4 5 15 5 5 4 0 0 4 5 5 5 4 9 33 100 100 72
100 59 100 100 100 97 77 94 14 57 100 100 100 100 100 100 100 100 21 5 5 0 2 2 0 3 1 4 5 4 20 72 6 14 5 5 5 6 5 5 5 5 5 5 0 0 58 77 97
100 100 100 100 100 100 83 90 95 94 90 98 100 96 37 36 66 35 19 33 50 5 5 16 8 8 31 17 6 69 97 95 41 5 5 5 5 8 5 5 5 13 5 5 5 5 5 3 5
100 100 100 100 100 100 63 5 29 100 100 100 100 100 61 19 5 5 5 12 5 7 51 32 69 90 9 21 17 5 5 5 5 5 5 5 5 5 5 5 5 5 5 1 5 32 13 46 75
100 100 100 100 100 100 99 18 100 88 38 84 9 27 23 28 5 5 3 2 2 0 0 4 5 5 5 5 20 5 8 23 19 7 5 5 5 5 40 10 5 5 5 0 0 2 17 8 8

GFSSGP_prec_cloud_168.txt.gz
Cloud_Cover
100 57 6 33 40 43 92 100 61 58 2 0 0 0 0 0 1 51 52 5 5 4 0 0 2 0 2 0 0 0 0 0 0 0 2 29 5 5 84 8 98 100 99 100 99 100 100 29 5
100 36 49 34 17 37 5 2 5 5 0 0 0 0 0 0 0 1 5 14 36 19 5 0 0 2 5 0 0 0 0 0 0 0 0 0 4 94 100 62 100 100 100 94 35 89 46 14 64
100 100 100 13 61 37 29 9 0 0 0 0 0 0 0 6 20 40 0 25 63 60 98 23 0 0 50 5 0 0 0 0 0 0 0 0 1 5 5 72 100 93 100 100 99 100 100 35 100
100 100 70 5 13 20 3 1 0 0 0 0 0 0 0 0 0 0 0 23 76 79 97 5 0 2 22 4 5 0 0 0 0 0 0 0 0 0 0 6 91 89 100 100 100 100 100 100 100
88 57 6 47 6 5 0 0 0 0 0 0 0 0 0 0 0 0 0 13 73 98 98 0 0 0 0 0 6 1 0 0 0 0 29 0 0 0 0 0 3 27 80 86 91 65 10 98 100
80 85 41 17 62 5 4 3 0 0 0 0 0 0 0 0 0 2 0 36 43 100 100 73 31 0 0 0 1 2 0 3 5 0 0 18 0 0 0 0 0 0 0 1 4 1 0 0 2
53 8 58 95 20 9 7 25 4 1 0 0 0 0 0 0 0 0 7 33 4 97 100 100 74 5 44 0 0 4 0 21 5 5 0 3 0 0 2 0 22 9 4 2 0 0 0 0 0
47 11 25 50 5 45 67 23 5 4 0 0 0 0 0 0 0 0 0 0 0 0 20 98 76 100 98 20 8 0 0 1 58 6 2 0 2 0 9 5 1 0 4 36 10 5 5 5 5
44 32 5 8 5 48 97 23 5 4 0 0 0 0 0 0 0 0 0 0 0 0 0 3 18 99 100 100 63 90 22 1 10 4 2 4 50 9 0 75 74 6 5 4 5 16 20 5 5
93 52 9 58 25 16 9 54 5 5 0 0 0 0 0 0 0 0 0 0 0 0 0 0 2 9 11 100 97 100 80 5 0 0 0 0 47 87 100 65 86 88 93 28 1 2 59 67 59
97 31 9 76 5 11 5 5 5 5 5 0 0 0 0 0 0 0 0 0 0 0 0 0 0 1 38 47 90 100 100 100 100 98 88 0 0 1 14 100 14 21 100 100 100 100 57 8 4
61 15 6 55 6 6 5 5 5 5 5 0 0 0 0 0 0 0 0 0 0 0 0 0 0 0 0 2 99 99 100 100 100 100 100 33 4 0 0 0 26 81 96 99 98 98 100 100 100
38 8 70 100 64 5 5 5 5 5 10 5 1 0 0 0 0 0 0 0 0 0 0 0 0 0 0 0 0 25 64 100 100 100 100 100 13 1 0 0 0 0 1 10 2 25 49 96 99
39 17 95 100 100 65 5 5 21 5 48 5 5 5 0 0 0 0 0 0 0 0 0 0 0 0 0 0 0 0 0 20 46 100 100 100 98 24 18 0 0 0 0 0 0 0 0 3 5
82 30 94 75 72 100 65 16 96 5 5 5 5 5 5 3 5 3 0 0 0 0 0 0 0 0 0 0 0 0 0 0 0 4 99 100 100 99 36 32 4 0 0 0 0 0 0 0 0
99 9 94 78 100 59 39 92 10 5 6 24 26 53 18 5 5 5 3 0 0 0 0 0 0 0 0 0 0 0 0 0 0 0 0 54 100 100 100 100 98 39 14 2 0 0 0 0 0
100 87 56 100 100 100 39 100 18 5 5 5 7 98 75 28 91 51 8 5 3 3 3 5 4 1 0 0 0 0 0 0 0 0 0 0 14 99 100 100 100 100 100 100 90 61 53 21 24
100 83 33 83 97 90 76 90 5 5 5 5 8 42 43 10 5 5 99 5 5 5 64 33 4 5 5 0 0 0 0 0 0 0 21 32 85 100 100 100 100 100 100 100 100 100 100 100 100
100 95 92 95 8 16 19 67 18 5 5 5 5 5 5 5 0 19 100 7 90 100 100 100 94 5 5 5 0 0 0 0 0 0 0 0 0 92 100 100 100 100 100 100 100 100 100 100 100
100 100 100 100 58 100 11 79 76 6 44 36 35 31 5 5 5 40 100 100 100 100 100 100 100 100 79 24 5 0 0 0 0 0 5 7 38 98 100 100 100 100 100 100 100 100 100 99 100
100 100 100 100 100 100 96 25 100 54 31 96 100 100 57 6 5 34 100 90 100 100 100 100 100 100 100 100 95 13 5 3 5 6 27 60 76 100 100 100 100 100 100 100 100 100 100 100 100
100 100 100 100 100 100 100 100 100 100 100 100 100 100 88 5 67 52 100 100 100 100 100 100 100 100 97 26 5 5 4 5 5 5 39 78 100 100 100 96 91 100 100 100 100 100 100 100 100
100 100 100 100 100 100 100 60 100 100 100 100 100 100 100 100 100 100 100 100 100 100 100 100 97 35 6 5 5 2 5 5 5 5 29 99 99 100 100 100 100 100 100 100 93 99 100 100 100
100 100 100 100 100 74 100 88 93 100 100 100 100 100 100 100 100 100 100 100 100 98 89 43 5 6 5 3 2 5 5 5 41 71 6 25 32 40 29 70 83 83 86 100 80 100 100 100 100
100 100 100 100 100 70 100 100 85 100 100 100 100 100 100 100 100 100 100 100 100 98 32 5 5 25 5 5 6 5 10 5 5 5 5 5 7 70 94 100 97 51 13 5 5 49 99 100 100
100 100 100 100 100 100 100 59 42 80 100 100 100 100 100 100 100 100 100 77 46 12 5 5 42 78 11 7 10 33 9 5 6 12 32 77 84 78 45 38 71 99 74 79 41 7 5 28 61
100 100 100 100 85 19 16 9 33 100 99 76 100 100 100 100 100 100 100 87 64 29 5 5 5 8 7 38 16 98 100 94 94 100 100 100 69 22 22 5 5 5 5 5 5 5 5 5 5
100 100 100 100 100 100 76 39 58 100 100 100 100 100 100 100 100 100 100 98 58 38 16 5 5 25 24 5 5 32 90 100 100 100 97 56 8 5 5 4 5 5 3 2 5 5 6 41 5
100 100 100 100 100 100 44 60 100 100 100 65 33 90 100 100 100 100 99 96 94 98 100 100 100 48 5 5 5 5 11 58 59 28 9 37 30 7 5 5 5 5 5 8 5 5 5 5 5
100 100 100 100 100 100 99 17 100 100 89 22 77 98 100 92 86 100 100 72 5 6 6 5 5 5 5 7 32 61 86 39 5 6 6 6 5 5 5 25 5 5 5 15 15 5 5 5 5

GFSSGP_prec_cloud_174.txt.gz
Cloud_Cover
37 85 66 98 34 91 76 77 94 49 5 8 5 5 0 0 0 1 22 87 27 37 0 0 0 0 0 0 0 0 0 25 55 0 5 5 8 97 100 100 100 100 100 100 88 98 100 100 100
85 22 28 98 100 33 12 49 6 24 10 36 5 4 0 24 0 0 12 14 0 9 0 0 0 0 0 0 0 0 0 4 0 0 0 3 5 5 19 97 100 100 100 100 100 100 100 100 100
43 5 14 5 28 5 5 6 52 16 7 82 7 0 0 67 0 0 0 83 0 0 0 0 0 0 0 0 0 0 0 0 0 0 0 0 1 3 5 14 34 26 10 23 74 46 5 6 5
6 1 11 100 28 1 21 5 10 6 5 2 0 0 0 0 0 0 34 94 0 0 0 0 0 0 0 0 0 0 0 0 0 0 0 0 0 0 0 2 5 58 2 68 28 35 5 5 5
5 5 5 87 100 4 39 6 72 7 5 5 0 0 1 0 0 0 19 95 82 3 6 0 0 0 0 0 0 0 0 0 1 95 1 0 0 0 0 0 0 0 0 0 0 0 3 39 69
12 5 5 5 5 5 7 19 58 5 5 5 5 0 0 0 0 0 2 100 20 89 74 1 33 0 0 0 0 0 0 0 1 0 18 0 0 0 0 0 0 0 0 0 0 0 0 0 0
73 50 5 5 5 5 15 8 67 19 5 5 5 5 2 1 0 0 25 74 22 46 18 1 5 2 44 0 0 0 0 0 0 0 0 6 0 1 5 0 4 3 0 0 0 3 0 0 0
100 84 20 5 3 4 5 39 28 55 5 5 5 0 19 0 0 0 9 0 0 0 0 0 11 8 13 10 2 0 0 0 0 0 0 0 0 0 5 0 5 0 4 5 5 0 5 5 5
98 66 30 5 5 5 60 23 5 35 5 7 5 5 5 4 0 0 0 0 0 0 0 0 7 10 6 8 7 10 0 0 4 0 0 0 0 0 0 0 1 3 0 2 4 4 5 4 0
87 27 68 6 5 5 12 40 5 62 49 26 44 5 5 5 5 2 0 0 0 0 0 0 0 0 0 0 0 1 97 73 2 0 0 0 1 0 0 0 0 0 0 0 1 0 0 0 1
100 100 46 100 83 5 5 81 93 60 90 14 6 5 89 17 5 5 0 0 0 0 0 0 0 0 0 0 0 14 8 100 100 74 43 8 0 0 0 0 0 0 0 0 0 0 2 0 1
100 100 100 100 100 17 5 68 100 78 69 78 5 60 63 18 5 5 5 3 0 0 0 0 0 0 0 0 0 0 0 0 56 100 100 100 98 23 13 0 0 1 0 0 0 6 0 2 0
100 100 100 100 100 100 7 20 100 99 13 55 5 6 73 10 5 5 5 5 0 0 0 0 0 0 0 0 0 0 0 0 0 0 0 72 100 100 72 39 32 2 0 0 0 0 0 1 0
100 100 100 100 100 100 22 6 99 99 80 7 5 55 72 8 23 49 5 5 0 0 0 0 0 0 0 0 0 0 0 0 0 0 0 0 0 20 100 100 52 32 23 9 1 0 0 0 0
100 100 100 100 100 100 86 83 86 70 100 98 31 8 64 28 57 34 55 5 2 0 0 0 0 0 0 0 0 0 0 0 0 0 0 1 36 53 10 100 100 100 99 100 93 61 57 48 42
100 100 100 100 100 100 100 100 100 5 100 100 50 17 93 30 22 27 73 40 5 5 5 5 0 0 0 0 0 0 0 0 0 0 0 0 2 89 100 98 100 100 100 100 100 100 100 100 100
100 94 100 100 100 100 100 100 100 62 88 100 100 40 49 96 62 30 100 50 22 5 5 5 5 5 2 0 0 0 0 2 1 2 5 15 12 98 100 100 100 100 100 100 100 100 95 100 100
88 100 100 100 100 100 100 100 100 100 93 99 100 100 57 77 82 99 100 100 66 5 5 13 5 5 5 4 0 0 0 0 5 14 98 100 100 100 100 100 100 100 100 100 100 100 100 100 100
99 29 47 89 100 100 100 100 100 100 100 100 100 100 69 7 87 64 75 100 96 31 10 23 33 6 5 5 5 5 0 0 2 7 100 96 58 100 100 11 31 79 100 100 100 100 100 100 66
35 61 35 100 100 100 100 100 100 100 100 100 100 100 100 72 24 99 100 100 45 16 5 5 5 11 62 64 47 5 5 5 6 99 100 100 100 100 100 99 100 100 100 100 100 100 100 100 100
100 68 89 100 99 83 100 98 100 100 100 100 100 100 100 100 66 19 98 83 69 6 5 5 5 5 5 8 15 6 5 5 5 59 100 100 100 100 100 100 100 100 100 100 100 100 100 94 93
48 98 100 100 89 42 28 72 100 100 100 100 100 100 100 100 19 84 100 100 99 71 36 27 53 30 47 44 36 6 11 32 5 18 97 68 100 99 98 100 93 100 100 100 54 100 100 100 100
79 95 100 100 30 5 5 6 99 100 100 100 100 100 100 100 100 100 100 100 100 97 57 39 54 98 100 100 100 100 86 96 100 100 100 92 69 64 5 5 31 83 96 47 49 100 100 100 100
100 100 100 99 93 41 64 6 96 100 100 100 100 100 100 100 100 100 100 100 100 100 100 100 100 100 97 40 65 100 100 98 100 100 93 5 4 5 5 3 3 2 4 5 5 3 5 33 84
63 100 95 91 100 46 100 34 90 93 100 100 100 100 100 100 100 100 100 100 100 100 100 100 100 78 60 66 45 52 77 72 94 100 100 79 4 0 0 2 3 5 6 5 2 5 5 5 5
100 100 100 99 51 5 46 5 73 34 100 100 100 100 100 100 100 100 100 100 99 100 100 100 85 93 99 99 80 48 70 86 100 100 42 5 11 6 5 5 5 5 4 5 6 23 34 5 5
100 93 100 99 7 5 1 23 100 99 94 100 100 100 100 100 100 100 100 99 64 33 6 5 5 5 32 64 52 80 100 100 79 99 100 100 99 80 32 5 5 20 32 40 7 5 5 10 78
94 81 71 80 51 44 1 6 100 100 100 100 100 100 100 100 100 100 100 100 100 100 96 83 41 36 69 75 74 100 100 100 100 100 87 50 5 5 5 5 5 5 5 5 5 6 44 7 9
100 100 100 100 78 9 5 81 100 100 100 100 100 100 100 100 100 100 100 100 100 100 100 100 100 100 93 50 36 28 36 56 49 6 5 5 5 5 5 5 5 5 5 5 15 27 5 5 5
100 100 100 100 100 100 17 26 100 100 100 55 100 100 100 100 100 100 100 100 100 100 100 98 99 67 15 51 73 96 100 46 69 59 50 12 5 5 5 19 72 91 70 19 5 5 5 5 5